Theta_e
336 335 336 335 336 335 336 336 337 337 337 338 338 337 336 335 337 334 332 327 326 325
339 338 337 337 338 340 339 338 337 338 337 337 339 338 338 336 336 333 331 327 327 329
338 340 341 339 339 338 341 341 338 339 338 337 338 341 339 337 334 332 330 328 328 324
340 339 342 342 339 340 342 344 341 341 340 338 338 340 340 336 333 330 329 328 327 322
342 341 341 341 340 340 342 345 344 343 342 342 341 340 339 334 332 331 329 327 324 320
338 342 341 340 341 341 342 343 344 344 343 343 343 340 338 336 333 331 330 326 323 319
323 331 340 342 341 341 339 339 341 343 343 342 342 339 336 334 329 327 325 324 321 316
320 325 333 336 337 335 335 333 336 339 339 336 335 334 331 330 326 322 319 320 317 314
319 323 332 329 331 331 331 332 335 336 336 334 334 315 318 325 324 321 317 314 312 313
319 322 323 330 331 330 330 331 331 332 334 333 327 313 313 319 327 325 320 314 311 310
319 320 327 330 328 329 329 330 331 330 331 331 328 311 312 317 327 322 317 313 310 306
318 322 329 328 329 328 329 329 329 327 326 328 327 306 305 317 314 310 305 304 304 303
315 320 326 328 331 330 328 327 327 325 326 321 320 302 302 311 310 304 301 301 301 303
314 318 323 327 330 329 327 325 325 323 319 311 309 306 302 303 310 304 301 300 300 300
Wind_Speed
14 10 8 11 9 10 10 11 12 12 12 12 10 9 8 7 5 7 6 7 6 4
15 14 12 9 10 10 9 8 10 13 13 12 12 11 11 7 8 7 7 6 6 5
17 15 12 9 12 11 12 10 11 12 13 11 12 12 12 7 8 10 6 6 7 4
15 15 12 11 9 11 12 14 14 15 15 14 13 12 12 10 12 10 10 7 7 6
9 11 13 12 9 8 12 13 15 14 14 15 14 14 13 15 14 15 12 11 9 9
7 10 12 13 12 13 13 13 11 12 14 14 13 13 14 13 14 12 11 13 10 7
6 4 9 11 11 10 7 9 10 12 11 8 8 8 9 13 14 8 8 7 8 7
6 5 6 9 11 9 9 6 7 9 8 9 9 13 18 9 17 10 9 9 8 5
7 5 4 4 10 10 9 10 10 10 12 14 10 20 20 24 11 9 8 10 9 9
9 6 4 6 9 12 12 12 11 11 13 17 19 29 28 31 23 23 17 12 14 10
9 9 1 7 10 10 12 14 15 13 12 16 17 28 31 25 11 12 12 15 11 15
9 9 7 11 10 9 11 11 13 14 14 13 12 8 14 13 12 13 13 14 12 12
9 9 9 13 12 9 9 10 9 11 12 13 13 12 14 16 11 14 11 10 12 16
10 9 8 6 11 12 11 9 9 10 8 11 12 15 19 19 13 12 11 9 9 8
Wind_Direction
194 191 189 190 181 191 196 199 191 190 196 196 191 183 183 179 167 156 156 159 164 155
197 196 193 172 184 186 191 185 183 190 195 196 188 185 175 186 167 155 160 157 155 147
203 199 196 185 187 182 187 176 175 186 193 194 203 183 184 167 155 152 158 147 145 118
196 201 201 202 191 181 173 181 183 190 194 193 197 191 183 164 153 147 141 136 146 145
213 210 205 198 195 178 181 187 189 191 196 200 189 190 184 160 160 153 149 140 149 139
217 198 197 205 207 199 189 189 188 187 198 204 198 191 192 169 157 161 169 128 126 140
17 269 204 200 203 207 208 180 180 189 195 190 182 162 165 127 97 116 116 131 128 128
319 318 221 176 179 172 172 173 179 167 167 134 145 142 134 94 116 123 132 122 116 137
312 340 294 214 164 152 142 144 159 165 154 146 142 145 127 111 105 135 147 153 133 126
300 290 303 175 176 152 153 146 149 155 162 158 147 144 145 161 163 176 173 154 146 141
283 280 196 163 180 163 158 161 157 154 158 161 170 166 166 180 163 149 149 142 153 133
267 275 172 173 173 185 173 169 175 164 160 163 171 179 151 144 111 118 120 119 127 133
261 261 235 162 169 177 185 178 161 169 170 167 166 146 130 132 130 122 117 117 125 133
252 247 238 194 155 168 170 161 178 153 136 126 140 150 143 140 141 138 135 141 124 119